Weather History for KGTB - May, 2013

Change the Weather History Date:

Tuesday, May 7, 2013

  Actual Average Record
Temperature  
Mean Temperature 64 °F -  
Max Temperature 78 °F 61 °F 78 °F (2000)
Min Temperature 51 °F 41 °F 30 °F (2006)
Degree Days  
Heating Degree Days 1    
Growing Degree Days 14 (Base 50)    
Moisture  
Dew Point 47 °F    
Average Humidity 51    
Maximum Humidity 72    
Minimum Humidity 36    
Precipitation  
Precipitation 0.00 in - - ()
Sea Level Pressure  
Sea Level Pressure 30.08 in    
Wind  
Wind Speed 8 mph (SW)    
Max Wind Speed 12 mph    
Max Gust Speed -    
Visibility 10 miles    
Events      
Averages and records for this station are not official NWS values.
T = Trace of Precipitation, MM = Missing Value Source: NWS Daily Summary

Daily Weather History Graph

Daily Weather History Graph

Search for Another Location

Airport or City:

Trip Planner

Search our weather history database for the weather conditions in past years. The results will help you decide how hot, cold, wet, or windy it might be!

Date:

Astronomy

May. 07, 2013 Rise Set
Actual Time 5:45 AM EDT 8:13 PM EDT
Civil Twilight 5:13 AM EDT 8:46 PM EDT
Nautical Twilight 4:33 AM EDT 9:26 PM EDT
Astronomical Twilight 3:47 AM EDT 10:12 PM EDT
Moon 4:23 AM EDT (5/7) 6:07 PM EDT (5/7)
Length of Visible Light 15h 32m
Length of Day
14h 27m
Waning Crescent, 5% of the Moon is Illuminated
May 7
Waning Crescent
May 9
New
May 18
First Quarter
May 25
Full
May 31
Last Quarter

Hourly Weather History & Observations

Time (EDT) Temp. Dew Point Humidity Pressure Visibility Wind Dir Wind Speed Gust Speed Precip Events Conditions
12:58 AM 55.0 °F 40.1 °F 57% 30.08 in 10.0 mi SSE 8.1 mph - N/A   Clear
1:58 AM 54.0 °F 40.1 °F 59% 30.07 in 10.0 mi SE 11.5 mph - N/A   Clear
2:58 AM 53.6 °F 39.7 °F 59% 30.07 in 10.0 mi SSE 10.4 mph - N/A   Clear
3:58 AM 52.5 °F 41.0 °F 65% 30.08 in 10.0 mi SSE 9.2 mph - N/A   Clear
4:58 AM 52.0 °F 42.3 °F 69% 30.08 in 10.0 mi SSE 6.9 mph - N/A   Clear
5:58 AM 51.4 °F 42.8 °F 72% 30.09 in 10.0 mi SE 9.2 mph - N/A   Clear
6:58 AM 54.7 °F 45.0 °F 70% 30.11 in 10.0 mi SE 8.1 mph - N/A   Clear
7:58 AM 61.0 °F 48.4 °F 63% 30.12 in 10.0 mi SSE 6.9 mph - N/A   Clear
8:58 AM 67.3 °F 51.3 °F 56% 30.13 in 10.0 mi Variable 4.6 mph - N/A   Clear
9:58 AM 70.7 °F 51.1 °F 50% 30.13 in 10.0 mi WSW 10.4 mph - N/A   Clear
10:58 AM 72.3 °F 51.1 °F 47% 30.12 in 10.0 mi WSW 6.9 mph - N/A   Clear
11:58 AM 75.4 °F 50.7 °F 42% 30.11 in 10.0 mi NNW 5.8 mph - N/A   Clear
12:58 PM 77.4 °F 50.0 °F 38% 30.09 in 10.0 mi WNW 8.1 mph - N/A   Clear
1:58 PM 76.5 °F 51.4 °F 42% 30.08 in 10.0 mi Variable 5.8 mph - N/A   Partly Cloudy
2:58 PM 76.1 °F 50.4 °F 40% 30.07 in 10.0 mi NW 5.8 mph - N/A   Clear
3:58 PM 77.2 °F 50.0 °F 38% 30.05 in 10.0 mi NNW 8.1 mph - N/A   Clear
4:58 PM 77.7 °F 50.2 °F 38% 30.03 in 10.0 mi NW 8.1 mph - N/A   Clear
5:58 PM 75.7 °F 49.6 °F 40% 30.03 in 10.0 mi NW 6.9 mph - N/A   Clear
6:58 PM 74.5 °F 45.5 °F 36% 30.04 in 10.0 mi NNW 8.1 mph - N/A   Clear
7:58 PM 71.4 °F 44.1 °F 37% 30.05 in 10.0 mi NW 3.5 mph - N/A   Clear
8:58 PM 65.7 °F 44.2 °F 46% 30.06 in 10.0 mi NW 2.3 mph - N/A   Clear
9:58 PM 61.9 °F 46.2 °F 56% 30.08 in 10.0 mi SSE 2.3 mph - N/A   Partly Cloudy
10:58 PM 62.2 °F 47.8 °F 59% 30.07 in 10.0 mi SSE 3.5 mph - N/A   Mostly Cloudy
11:58 PM 65.8 °F 44.2 °F 46% 30.06 in 10.0 mi Variable 5.8 mph - N/A   Partly Cloudy